Rensselaer, IN

1:44 PM CDT on May 24, 2018 (GMT -0500)
Jasper County

Weather History for KRZL - May, 2014

Change the Weather History Date:

Tuesday, May 6, 2014

  Actual Average (WUND) Record (WUND)
Temperature  
Mean Temperature 58 °F -  
Max Temperature 73 °F - - (-1)
Min Temperature 42 °F - - (-1)
Degree Days  
Heating Degree Days 8    
Growing Degree Days 8 (Base 50)    
Moisture  
Dew Point 36 °F    
Average Humidity 42    
Maximum Humidity 76    
Minimum Humidity 27    
Precipitation  
Precipitation 0.00 in - - ()
Sea Level Pressure  
Sea Level Pressure 29.92 in    
Wind  
Wind Speed 14 mph (East)    
Max Wind Speed 22 mph    
Max Gust Speed 30 mph    
Visibility 10 miles    
Events Thunderstorm    
Averages and records for this station are not official NWS values.
T = Trace of Precipitation, MM = Missing Value Source: NWS Daily Summary

Daily Weather History Graph

Daily Weather History Graph

Search for Another Location

Airport or City:

Astronomy

May. 06, 2014 Rise Set
Actual Time 5:40 AM CDT 7:50 PM CDT
Civil Twilight 5:10 AM CDT 8:21 PM CDT
Nautical Twilight 4:33 AM CDT 8:58 PM CDT
Astronomical Twilight 3:52 AM CDT 9:39 PM CDT
Moon 11:56 AM CDT (5/6) 1:09 AM CDT (5/6)
Length of Visible Light 15h 10m
Length of Day
14h 09m
Waxing Crescent, 46% of the Moon is Illuminated
May 6
Waxing Crescent
May 6
First Quarter
May 14
Full
May 21
Last Quarter
May 28
New

Hourly Weather History & Observations

Time (CDT) Temp. Windchill Dew Point Humidity Pressure Visibility Wind Dir Wind Speed Gust Speed Precip Events Conditions
12:15 AM 48.2 °F - 35.6 °F 62% 29.96 in 10.0 mi North 6.9 mph - N/A   Clear
12:35 AM 46.4 °F 42.9 °F 35.6 °F 66% 29.96 in 10.0 mi North 6.9 mph - N/A   Clear
12:55 AM 46.4 °F 41.9 °F 35.6 °F 66% 29.96 in 10.0 mi North 9.2 mph - N/A   Clear
1:15 AM 44.6 °F 41.4 °F 35.6 °F 71% 29.95 in 10.0 mi NE 5.8 mph - N/A   Clear
1:35 AM 44.6 °F 39.7 °F 35.6 °F 71% 29.94 in 10.0 mi NE 9.2 mph - N/A   Clear
1:55 AM 42.8 °F 38.6 °F 35.6 °F 76% 29.95 in 10.0 mi NE 6.9 mph - N/A   Clear
2:15 AM 42.8 °F 38.6 °F 35.6 °F 76% 29.95 in 10.0 mi ENE 6.9 mph - N/A   Clear
6:55 AM 44.6 °F 38.1 °F 37.4 °F 76% 29.99 in 10.0 mi East 13.8 mph - N/A   Clear
7:15 AM 46.4 °F 40.1 °F 37.4 °F 71% 29.99 in 10.0 mi East 15.0 mph 21.9 mph N/A   Clear
7:35 AM 48.2 °F - 37.4 °F 66% 29.99 in 10.0 mi East 17.3 mph 23.0 mph N/A   Clear
7:55 AM 50.0 °F - 37.4 °F 62% 29.99 in 10.0 mi East 18.4 mph - N/A   Clear
8:15 AM 51.8 °F - 37.4 °F 58% 29.99 in 10.0 mi East 18.4 mph - N/A   Clear
8:55 AM 55.4 °F - 35.6 °F 47% 29.99 in 10.0 mi ENE 20.7 mph 26.5 mph N/A   Clear
9:15 AM 55.4 °F - 35.6 °F 47% 29.99 in 10.0 mi East 18.4 mph 26.5 mph N/A   Clear
9:35 AM 59.0 °F - 35.6 °F 42% 29.98 in 10.0 mi East 18.4 mph 24.2 mph N/A   Clear
9:55 AM 59.0 °F - 33.8 °F 39% 29.98 in 10.0 mi East 21.9 mph 26.5 mph N/A   Clear
10:15 AM 60.8 °F - 33.8 °F 36% 29.98 in 10.0 mi East 20.7 mph 25.3 mph N/A   Clear
10:35 AM 60.8 °F - 33.8 °F 36% 29.97 in 10.0 mi East 19.6 mph 26.5 mph N/A   Clear
10:55 AM 62.6 °F - 33.8 °F 34% 29.97 in 10.0 mi ENE 13.8 mph 25.3 mph N/A   Clear
11:15 AM 64.4 °F - 33.8 °F 32% 29.97 in 10.0 mi East 18.4 mph 26.5 mph N/A   Clear
11:35 AM 64.4 °F - 33.8 °F 32% 29.97 in 10.0 mi East 19.6 mph 24.2 mph N/A   Clear
11:55 AM 64.4 °F - 33.8 °F 32% 29.96 in 10.0 mi East 18.4 mph 26.5 mph N/A   Clear
12:15 PM 66.2 °F - 33.8 °F 30% 29.96 in 10.0 mi ESE 17.3 mph 24.2 mph N/A   Clear
12:35 PM 68.0 °F - 33.8 °F 28% 29.95 in 10.0 mi East 18.4 mph 23.0 mph N/A   Clear
12:55 PM 68.0 °F - 33.8 °F 28% 29.94 in 10.0 mi East 17.3 mph 23.0 mph N/A   Clear
1:15 PM 69.8 °F - 33.8 °F 27% 29.94 in 10.0 mi East 18.4 mph 25.3 mph N/A   Clear
1:35 PM 69.8 °F - 35.6 °F 28% 29.93 in 10.0 mi East 17.3 mph 29.9 mph N/A   Clear
1:55 PM 69.8 °F - 35.6 °F 28% 29.93 in 10.0 mi ESE 17.3 mph 23.0 mph N/A   Clear
2:15 PM 71.6 °F - 35.6 °F 27% 29.92 in 10.0 mi East 17.3 mph 23.0 mph N/A   Clear
2:35 PM 71.6 °F - 35.6 °F 27% 29.91 in 10.0 mi East 15.0 mph 23.0 mph N/A   Clear
3:15 PM 71.6 °F - 37.4 °F 29% 29.90 in 10.0 mi East 15.0 mph 23.0 mph N/A   Clear
3:35 PM 71.6 °F - 37.4 °F 29% 29.89 in 10.0 mi East 18.4 mph 23.0 mph N/A   Clear
3:55 PM 73.4 °F - 37.4 °F 27% 29.89 in 10.0 mi East 19.6 mph 25.3 mph N/A   Clear
4:15 PM 71.6 °F - 37.4 °F 29% 29.88 in 10.0 mi East 19.6 mph 25.3 mph N/A   Clear
4:35 PM 73.4 °F - 39.2 °F 29% 29.88 in 10.0 mi East 21.9 mph 25.3 mph N/A   Clear
4:55 PM 71.6 °F - 37.4 °F 29% 29.87 in 10.0 mi East 17.3 mph 25.3 mph N/A   Clear
5:15 PM 71.6 °F - 37.4 °F 29% 29.87 in 10.0 mi ESE 19.6 mph 27.6 mph N/A   Clear
5:35 PM 71.6 °F - 39.2 °F 31% 29.87 in 10.0 mi East 19.6 mph 26.5 mph N/A   Clear
5:55 PM 71.6 °F - 37.4 °F 29% 29.87 in 10.0 mi ESE 19.6 mph 23.0 mph N/A   Clear
6:15 PM 69.8 °F - 37.4 °F 31% 29.86 in 10.0 mi East 18.4 mph 23.0 mph N/A   Scattered Clouds
6:35 PM 69.8 °F - 37.4 °F 31% 29.85 in 10.0 mi East 21.9 mph 28.8 mph N/A   Scattered Clouds
6:55 PM 69.8 °F - 39.2 °F 33% 29.89 in 10.0 mi East 9.2 mph 25.3 mph N/A   Clear
7:15 PM 68.0 °F - 39.2 °F 35% 29.88 in 10.0 mi East 11.5 mph 23.0 mph N/A   Clear
7:35 PM 68.0 °F - 37.4 °F 33% 29.88 in 10.0 mi East 12.7 mph - N/A   Clear
7:55 PM 66.2 °F - 37.4 °F 35% 29.87 in 10.0 mi East 15.0 mph - N/A   Clear
8:15 PM 64.4 °F - 37.4 °F 37% 29.87 in 10.0 mi East 17.3 mph 21.9 mph N/A   Clear
8:35 PM 64.4 °F - 37.4 °F 37% 29.88 in 10.0 mi East 17.3 mph 21.9 mph N/A   Clear
8:55 PM 64.4 °F - 37.4 °F 37% 29.88 in 10.0 mi East 15.0 mph 23.0 mph N/A   Clear
9:15 PM 62.6 °F - 39.2 °F 42% 29.89 in 10.0 mi East 13.8 mph - N/A   Clear
9:35 PM 60.8 °F - 39.2 °F 45% 29.88 in 10.0 mi East 12.7 mph - N/A   Clear
10:15 PM 60.8 °F - 39.2 °F 45% 29.87 in 10.0 mi East 20.7 mph 25.3 mph N/A   Clear
10:35 PM 60.8 °F - 39.2 °F 45% 29.87 in 10.0 mi East 17.3 mph 24.2 mph N/A   Clear
10:55 PM 59.0 °F - 37.4 °F 45% 29.87 in 10.0 mi East 17.3 mph - N/A Thunderstorm Clear
11:15 PM 57.2 °F - 37.4 °F 48% 29.88 in 10.0 mi East 18.4 mph - N/A   Clear
11:35 PM 55.4 °F - 37.4 °F 51% 29.88 in 10.0 mi East 19.6 mph 23.0 mph N/A   Clear
11:55 PM 55.4 °F - 35.6 °F 47% 29.88 in 10.0 mi East 18.4 mph 24.2 mph N/A   Clear